Hourly Weather Roundup
Issued by NWS Central Illinois

Home | Current Version | Previous Version | Text Only | Print | Product List | Glossary On
Versions: 1 2 3 4 5 6 7 8 9 10 11 12 13 14 15 16 17 18 19 20 21 22 23 24 25 26 27 28 29 30 31 32 33 34 35 36 37 38 39 40 41 42 43 44 45 46 47 48 49 50
000
NZUS43 KILX 251010
HWRILX

AREA WEATHER ROUNDUP
NATIONAL WEATHER SERVICE, LINCOLN IL
500 AM CDT MON MAY 25 2015


CITY           SKY/WX    TMP DP  RH WIND       PRES   REMARKS
BLOOMINGTON    CLOUDY    69  66  90 S23       29.88S
CHAMPAIGN      CLOUDY    70  65  84 S18G30    29.92R
DANVILLE       CLOUDY    72  64  76 S18G28    29.91S
DECATUR        CLOUDY    70  65  84 S18G26    29.90S
EFFINGHAM      RAIN      69  65  87 S10G16    29.97R
FLORA          LGT RAIN  69  67  92 S15G22    29.98R
GALESBURG      HVY RAIN  65  64  96 SW10      29.80R
JACKSONVILLE   CLOUDY    71  66  83 S17       29.85R
LACON          CLOUDY    68  64  85 S18G26    29.80S
LAWRENCEVILLE  LGT RAIN  69  66  90 S16       30.00F
LITCHFIELD     CLOUDY    67  64  89 S17G25    29.91R
$$


CITY           SKY/WX    TMP DP  RH WIND       PRES   REMARKS
LINCOLN        CLOUDY    69  65  84 S15G24    29.85S
MACOMB         DRIZZLE   65  65  98 SW9       29.83R
MATTOON        LGT RAIN  69  66  90 S12G21    29.93S
MT CARMEL AP   LGT RAIN  70  64  83 S20       30.00S
OLNEY-NOBLE AP LGT RAIN  68  64  88 S14G21    29.98S
PARIS          LGT RAIN  71  65  82 S23       29.96S
PEORIA         CLOUDY    70  65  84 S16G24    29.82R
PONTIAC        CLOUDY    71  65  82 S20G28    29.87S
RANTOUL        CLOUDY    72  67  84 S20G26    29.91S
ROBINSON       LGT RAIN  68  66  92 S14G22    30.00S
SPRINGFIELD    CLOUDY    69  65  86 S16       29.87R
TAYLORVILLE    CLOUDY    68  64  88 S15       29.90R
$$

...REGIONAL REPORTS...


CITY           SKY/WX    TMP DP  RH WIND       PRES   REMARKS
CHICAGO O`HARE CLOUDY    71  62  73 S21G29    29.83F
KANKAKEE       CLOUDY    70  65  84 S16       29.89S
MOLINE         CLOUDY    66  63  90 W8        29.75S
MOUNT VERNON   CLOUDY    70  63  78 S15       29.99R
PITTSFIELD     CLOUDY    67  64  90 SW10      29.86R
QUINCY         CLOUDY    65  63  93 SW12      29.84R
ROCKFORD       CLOUDY    68  63  84 S22G32    29.79F
$$


CITY           SKY/WX    TMP DP  RH WIND       PRES   REMARKS
BURLINGTON     CLOUDY    65  64  97 SW8       29.80R
CEDAR RAPIDS   MOCLDY    63  63 100 SW9       29.74S
DES MOINES     LGT RAIN  64  61  90 SW10      29.76R
KIRKSVILLE     RAIN      63  62  97 W9        29.84R FOG
OTTUMWA        CLOUDY    63  61  93 SW9       29.78S
ST LOUIS       CLOUDY    71  65  81 S12       29.90R
$$


CITY           SKY/WX    TMP DP  RH WIND       PRES   REMARKS
TERRE HAUTE    LGT RAIN  69  66  90 S16G29    29.99R
EVANSVILLE     LGT RAIN  69  66  90 S13       30.05R
INDIANAPOLIS   LGT RAIN  71  63  75 S20G37    30.01R
LAFAYETTE      CLOUDY    72  63  73 S14G22    29.94R
MADISON        CLOUDY    66  64  93 S7        29.76F
MILWAUKEE      LGT RAIN  56  54  93 CALM      29.83F FOG
$$





USA.gov is the U.S. government's official web portal to all federal, state and local government web resources and services.